Change the Weather History Date:

Saturday, October 19, 2013

  Actual Average Record
Temperature  
Mean Temperature 47 °F 55 °F  
Max Temperature 58 °F 66 °F 87 °F (1894)
Min Temperature 35 °F 44 °F 22 °F (1972)
Degree Days  
Heating Degree Days 18 10  
Month to date heating degree days 119 151  
Since 1 July heating degree days 135 219  
Cooling Degree Days 0 0  
Month to date cooling degree days 47 15  
Year to date cooling degree days 1321 1242  
Moisture  
Dew Point 36 °F    
Average Humidity 66    
Maximum Humidity 92    
Minimum Humidity 40    
Precipitation  
Precipitation 0.01 in 0.11 in 1.29 in (2005)
Month to date precipitation 1.12 2.14  
Year to date precipitation 36.63 35.76  
Snow  
Snow 0.00 in 0.00 in T in (1996)
Month to date snowfall 0.0 0.0  
Since 1 July snowfall 0.0 0.0  
Since 1 September snowfall 0.0 0.0  
Snow Depth 0.00 in    
Sea Level Pressure  
Sea Level Pressure 30.01 in    
Wind  
Wind Speed 11 mph (WSW)    
Max Wind Speed 21 mph    
Max Gust Speed 27 mph    
Visibility 10 miles    
Events Rain , Snow    
T = Trace of Precipitation, MM = Missing Value Source: NWS Daily Summary

Daily Weather History Graph

Daily Weather History Graph

Search for Another Location

Airport or City:

Trip Planner

Search our weather history database for the weather conditions in past years. The results will help you decide how hot, cold, wet, or windy it might be!

Date:

Astronomy

Oct. 19, 2013 Rise Set
Actual Time 7:22 AM CDT 6:24 PM CDT
Civil Twilight 6:55 AM CDT 6:51 PM CDT
Nautical Twilight 6:24 AM CDT 7:22 PM CDT
Astronomical Twilight 5:53 AM CDT 7:53 PM CDT
Moon 6:53 PM CDT (10/19) 7:59 AM CDT (10/19)
Length of Visible Light 11h 55m
Length of Day
11h 01m
Waxing Gibbous, 99% of the Moon is Illuminated
Oct 19
Waxing Gibbous
Oct 26
Last Quarter
Nov 3
New
Nov 9
First Quarter
Nov 17
Full

Hourly Weather History & Observations

Time (CDT) Temp. Windchill Dew Point Humidity Pressure Visibility Wind Dir Wind Speed Gust Speed Precip Events Conditions
12:46 AM 39.9 °F 33.9 °F 37.9 °F 93% 30.04 in 10.0 mi WNW 9.2 mph - 0.01 in Rain Light Rain
12:54 AM 39.9 °F 35.1 °F 37.9 °F 93% 30.05 in 10.0 mi WNW 6.9 mph - 0.01 in Rain Light Rain
1:03 AM 39.9 °F 35.1 °F 37.9 °F 93% 30.03 in 10.0 mi WNW 6.9 mph - 0.00 in Rain Light Rain
1:54 AM 39.9 °F 36.7 °F 37.9 °F 93% 30.04 in 10.0 mi West 4.6 mph - 0.01 in Rain Light Rain
2:41 AM 39.9 °F 35.1 °F 37.9 °F 93% 30.03 in 10.0 mi West 6.9 mph - 0.00 in Rain Light Rain
2:54 AM 39.9 °F 33.9 °F 37.9 °F 93% 30.04 in 10.0 mi West 9.2 mph - 0.00 in Rain Light Rain
3:54 AM 39.0 °F 32.8 °F 37.0 °F 93% 30.03 in 10.0 mi West 9.2 mph - 0.00 in Rain Light Rain
4:54 AM 37.0 °F 31.6 °F 35.1 °F 93% 30.02 in 9.0 mi WSW 6.9 mph - 0.00 in   Scattered Clouds
5:33 AM 37.0 °F 31.0 °F 35.1 °F 93% 30.02 in 6.0 mi WSW 8.1 mph - N/A   Mostly Cloudy
5:54 AM 37.9 °F 30.5 °F 35.1 °F 89% 30.04 in 8.0 mi West 11.5 mph - N/A   Overcast
6:34 AM 37.0 °F 29.3 °F 35.1 °F 93% 30.04 in 7.0 mi West 11.5 mph - 0.00 in Snow Light Snow
6:44 AM 37.0 °F 29.8 °F 35.1 °F 93% 30.04 in 7.0 mi West 10.4 mph - 0.00 in Snow Light Snow
6:54 AM 37.0 °F 31.0 °F 35.1 °F 93% 30.05 in 7.0 mi West 8.1 mph - 0.00 in Snow Light Snow
7:54 AM 37.0 °F 29.8 °F 34.0 °F 89% 30.06 in 8.0 mi West 10.4 mph - 0.00 in   Overcast
8:54 AM 37.9 °F 30.5 °F 35.1 °F 89% 30.06 in 10.0 mi West 11.5 mph - N/A   Overcast
9:54 AM 39.9 °F 33.4 °F 36.0 °F 86% 30.06 in 10.0 mi SW 10.4 mph - N/A   Mostly Cloudy
10:17 AM 41.0 °F 35.2 °F 36.0 °F 82% 30.05 in 10.0 mi WSW 9.2 mph - N/A   Scattered Clouds
10:54 AM 45.0 °F 38.9 °F 37.0 °F 74% 30.06 in 10.0 mi SW 12.7 mph - N/A   Scattered Clouds
11:54 AM 48.9 °F - 39.0 °F 69% 30.04 in 10.0 mi SW 13.8 mph - N/A   Clear
12:54 PM 52.0 °F - 39.9 °F 63% 30.01 in 10.0 mi SW 13.8 mph - N/A   Clear
1:54 PM 55.0 °F - 39.0 °F 55% 29.99 in 10.0 mi SW 12.7 mph - N/A   Clear
2:54 PM 57.0 °F - 37.0 °F 47% 29.97 in 10.0 mi SW 16.1 mph 24.2 mph 0.00 in   Partly Cloudy
3:54 PM 57.0 °F - 33.1 °F 40% 29.96 in 10.0 mi SW 16.1 mph 23.0 mph N/A   Clear
4:54 PM 57.0 °F - 34.0 °F 42% 29.95 in 10.0 mi SW 17.3 mph - N/A   Clear
5:54 PM 54.0 °F - 34.0 °F 47% 29.95 in 10.0 mi SW 11.5 mph - 0.00 in   Clear
6:54 PM 48.9 °F - 35.1 °F 59% 29.96 in 10.0 mi SW 10.4 mph - N/A   Clear
7:54 PM 46.9 °F - 35.1 °F 63% 29.96 in 10.0 mi South 6.9 mph - N/A   Clear
8:54 PM 45.0 °F 40.6 °F 35.1 °F 68% 29.97 in 10.0 mi South 8.1 mph - N/A   Clear
9:54 PM 45.0 °F 40.1 °F 36.0 °F 71% 29.97 in 10.0 mi South 9.2 mph - N/A   Clear
10:54 PM 45.0 °F 40.6 °F 37.0 °F 74% 29.96 in 10.0 mi SSW 8.1 mph - N/A   Clear
11:54 PM 46.0 °F 41.0 °F 37.9 °F 73% 29.96 in 10.0 mi SSW 10.4 mph - N/A   Clear